Regional Weather Roundup
Issued by NWS Charleston, WV

Home | Current Version | Previous Version | Graphics & Text | Print | Product List | Glossary On
Versions: 1 2 3 4 5 6 7 8 9 10 11 12 13 14 15 16 17 18 19 20 21 22 23 24 25 26 27 28 29 30 31 32 33 34 35 36 37 38 39 40 41 42 43 44 45 46 47 48 49 50
000
ASUS41 KRLX 170710
RWRRLX
West Virginia Regional Weather Roundup
National Weather Service Charleston WV
200 AM EST SUN DEC 17 2017

Note: "fair" indicates few or no clouds below 12,000 feet with no
significant weather and/or obstructions to visibility.

WVZ003-170800-
Northern Panhandle of West Virginia

CITY           SKY/WX    TMP DP  RH WIND       PRES   REMARKS
WHEELING       CLEAR     35  25  66 S6        30.17R
$$

WVZ009-170800-
Northwest West Virginia

CITY           SKY/WX    TMP DP  RH WIND       PRES   REMARKS
PARKERSBURG    CLEAR     35  26  69 S8        30.24R
$$

WVZ006-170800-
Western West Virginia

CITY           SKY/WX    TMP DP  RH WIND       PRES   REMARKS
HUNTINGTON     CLOUDY    39  25  57 S3        30.22F
$$

WVZ015-170800-
West Central West Virginia

CITY           SKY/WX    TMP DP  RH WIND       PRES   REMARKS
CHARLESTON     CLOUDY    31  25  78 CALM      30.24R
$$

WVZ022-031-170800-
North Central West Virginia

CITY           SKY/WX    TMP DP  RH WIND       PRES   REMARKS
CLARKSBURG     CLEAR     36  24  62 S5        30.22R
MORGANTOWN     CLEAR     38  24  57 SW6       30.21R
$$

WVZ025-035-042-045-170800-
Southern West Virginia

CITY           SKY/WX    TMP DP  RH WIND       PRES   REMARKS
BECKLEY        CLOUDY    30  22  72 S6        30.21S
LOGAN            N/A     37  25  60 CALM      30.23R
BLUEFIELD      CLOUDY    32  21  64 W8        30.22S
LEWISBURG      CLOUDY    28  22  79 CALM      30.23R
$$

WVZ047-170800-
Northern Mountains of West Virginia

CITY           SKY/WX    TMP DP  RH WIND       PRES   REMARKS
ELKINS         CLEAR     27  21  78 CALM      30.22R
$$

WVZ052-170800-
Eastern Panhandle of West Virginia

CITY           SKY/WX    TMP DP  RH WIND       PRES   REMARKS
MARTINSBURG    CLOUDY    25  20  81 S6        30.20R
PETERSBURG     CLOUDY    27  22  82 E5        30.21R
$$



USA.gov is the U.S. government's official web portal to all federal, state and local government web resources and services.